sat.trackr.live / text

‹ back to catalog

COSMOS 2567

NORAD 55978 · 2023-040A

PAYLOAD ACTIVE UNKNOWN

§ Identity

Operator
Country
CIS
Launch date
2023-03-23
Launch site
PLMSC
Launch vehicle
Mass (kg)
RCS (m²)

External: N2YO · Heavens-Above · Gunter

§ Orbital elements

Epoch: 2026-05-25T04:36:06.889824Z

Period
94.44 min
Inclination
97.5889°
Eccentricity
0.0002253
Mean motion
15.24713909 rev/d
Perigee alt
490.1 km
Apogee alt
493.2 km
Semi-major
6,869.8 km
B*
1.2622e-4
RAAN
71.0351°
Arg perigee
114.1138°
Mean anomaly
246.0335°
Rev number
17,655

§ Raw data

COSMOS 25671 55978U 23040A   26145.19174641  .00003048  00000+0  12622-3 0  99942 55978  97.5889  71.0351 0002253 114.1138 246.0335 15.24713909176558

JSON: /api/v1/satellites/55978 · /tle

For live sub-satellite position, see the globe view (requires WebGL).

§ Visibility from observer

Set your observer location to see the next 7 days of passes ≥ 10°. The values pass through the URL so the page stays shareable.

No JS? Fill the form by hand. The geolocation button needs JavaScript.